Location: Pedholt
(56.0260°N, 10.2097°E)
Time: 20:30:29
(UTC+00:00)

Transit 2A Rocket - Pass Details

Date: 05 August 2021
Orbit: 586 x 917 km, 66.7° (Epoch: 27 September)

Event Time Altitude Azimuth Distance (km) Brightness Sun altitude
Rises 14:26:08 0° 248° (WSW) 2,936 9.0 38.1°
Reaches altitude 10° 14:28:24 10° 255° (WSW) 2,071 8.5 37.8°
Maximum altitude 14:32:55 45° 328° (NNW) 955 6.0 37.2°
Drops below altitude 10° 14:37:53 10° 41° (NE) 2,280 7.1 36.6°
Sets 14:40:30 0° 48° (NE) 3,267 7.8 36.3°
